Location: Three Oaks Observatory
(31.1535°N, 83.5955°W)
Time: 10:22:41
(UTC-05:00)

NO-84 - Pass Details

Date: 30 October 2019
Orbit: 331 x 505 km, 55.0° (Epoch: 05 November)

Event Time Altitude Azimuth Distance (km) Brightness Sun altitude
Rises 20:36:21 0° 269° (W) 2,318 ? -23.8°
Reaches altitude 10° 20:39:50 10° 309° (NW) 1,516 ? -24.5°
Maximum altitude 20:40:45 11° 325° (NW) 1,482 ? -24.7°
Drops below altitude 10° 20:41:40 10° 340° (NNW) 1,545 ? -24.9°
Enters shadow 20:41:43 10° 341° (NNW) 1,552 ? -24.9°
